Wind_Speed
74 67 64 62 58 51 51 50 46 40 38 38 35 34 32 32 29 26 28 25 24 29 30 28 34 36 38 35 27 32 30 32 32 33 34 33 32 34 33 36 34 35 36 39 39 45 46 47 44 43 44 50 55 54
77 75 70 65 64 61 55 56 51 46 45 42 39 38 40 41 37 37 32 32 32 29 32 37 36 36 38 36 40 42 42 40 39 39 39 39 42 42 41 43 43 45 46 45 45 47 50 50 52 53 57 56 60 59
81 78 76 70 67 63 62 62 61 57 54 53 49 46 46 47 48 46 46 42 39 37 39 41 42 45 47 47 46 46 45 46 48 49 50 49 48 48 49 52 52 57 54 52 51 57 58 58 58 60 63 62 65 66
83 83 82 77 73 71 69 68 69 65 62 62 58 57 54 53 52 50 49 47 49 49 46 43 48 49 49 52 55 56 51 48 50 52 56 59 62 56 54 59 63 68 66 61 59 62 62 67 65 63 68 75 74 72
90 89 86 83 81 79 77 75 74 73 69 68 66 62 61 60 58 56 54 54 54 54 54 55 54 55 57 59 60 62 61 63 52 55 62 63 67 66 66 61 69 73 73 68 69 70 70 72 73 75 75 75 76 78
94 93 93 90 86 84 82 81 81 79 75 74 73 70 68 66 67 64 63 62 62 61 61 65 66 63 63 61 63 62 61 62 63 66 64 64 68 66 62 64 75 70 71 76 77 75 75 78 77 78 81 82 82 88
102 102 101 93 92 89 86 85 83 84 81 80 80 77 73 73 71 70 69 69 68 69 69 74 72 74 76 72 69 67 68 71 70 69 66 67 72 72 73 76 80 75 74 74 77 79 80 83 86 88 88 91 91 90
105 102 104 95 93 93 93 90 89 86 90 87 82 81 82 82 80 81 81 78 76 77 75 78 82 84 84 79 81 79 76 76 69 72 78 78 75 77 78 77 80 85 88 91 89 84 82 85 88 91 93 97 98 100
104 103 109 101 94 96 97 94 92 92 91 93 91 86 85 87 88 89 88 86 85 84 79 81 90 89 89 84 83 82 79 81 81 83 83 81 83 86 87 86 85 85 87 86 84 87 92 95 95 96 101 100 100 98
109 107 108 105 100 95 97 100 96 93 95 95 94 93 92 94 95 89 85 89 90 88 88 85 89 89 91 94 90 85 84 89 86 85 89 88 92 96 99 96 93 95 97 97 96 98 101 104 107 109 109 110 111 107
118 114 112 108 107 104 97 97 102 101 102 98 95 95 91 92 93 94 93 93 91 91 92 96 98 96 94 95 97 97 94 90 89 90 94 95 99 97 100 106 107 108 107 105 109 113 115 114 117 119 118 119 121 124
126 121 117 115 112 110 103 101 98 101 103 102 98 98 99 102 100 96 90 93 99 101 99 100 101 103 105 103 102 100 102 98 96 96 101 105 109 108 109 111 110 112 115 116 117 116 118 121 123 123 123 119 118 119
132 130 126 122 121 121 114 114 110 106 106 105 105 105 107 108 103 100 96 102 106 108 111 113 115 113 109 112 109 107 108 104 104 107 108 116 118 118 121 119 116 117 119 118 120 122 122 121 122 121 117 116 113 112
131 135 133 126 125 128 126 119 115 111 115 113 109 108 108 103 101 104 106 107 111 117 118 111 111 112 111 106 107 110 112 111 114 119 123 127 127 127 126 122 120 117 119 120 121 122 123 123 118 118 116 112 111 112
126 127 131 131 128 128 128 128 126 121 116 113 107 107 103 105 107 106 109 114 116 117 118 120 116 113 111 111 107 112 116 114 116 121 119 114 114 117 120 119 118 119 119 123 124 124 123 122 117 113 113 114 115 113
121 126 129 129 127 131 135 134 132 128 118 110 104 101 105 108 110 113 115 116 117 120 121 121 121 116 113 114 110 110 116 115 120 122 120 117 116 116 117 117 119 119 119 121 117 118 117 114 113 108 104 103 103 102
106 109 114 116 119 120 122 118 113 109 106 103 100 107 111 114 120 118 119 118 124 124 122 122 120 119 115 113 108 112 113 119 122 122 121 119 117 116 116 115 114 112 108 108 109 108 107 105 103 100 97 95 93 90
102 108 108 107 108 107 108 110 110 103 91 88 97 100 97 108 115 117 117 115 115 119 118 117 116 111 105 106 107 112 116 115 115 114 113 111 110 110 105 97 95 98 100 99 98 97 97 97 95 92 89 85 83 82
102 104 102 102 103 102 100 96 95 92 86 87 86 88 95 98 97 102 106 107 112 114 115 112 112 103 102 107 112 113 114 113 110 107 103 98 96 91 87 87 88 90 89 89 90 91 90 89 88 85 81 79 77 74
100 100 100 102 101 98 96 91 90 86 79 78 78 81 83 84 89 91 97 103 111 110 106 103 102 104 107 106 106 106 104 101 100 94 89 86 82 77 78 84 87 86 85 86 88 88 86 85 86 81 77 75 71 70
95 96 98 98 96 93 91 84 84 83 81 79 80 83 82 87 88 90 94 105 108 100 99 98 102 104 105 102 97 98 96 92 88 85 79 73 73 74 79 85 86 84 85 86 85 83 85 84 78 75 72 69 65 63
94 95 95 94 92 90 83 77 84 88 89 87 86 88 86 83 83 85 93 97 94 91 99 97 97 99 99 96 94 94 88 83 80 76 75 73 71 76 79 82 81 81 81 83 80 78 79 78 73 68 65 62 59 57
92 92 90 89 87 83 78 87 91 94 94 88 87 87 83 82 81 82 87 86 84 83 93 96 96 102 101 94 89 84 84 79 72 73 79 78 74 75 79 74 75 72 73 75 70 67 66 65 62 60 57 55 53 52
84 86 86 85 84 85 86 90 93 92 89 85 85 86 81 79 81 80 79 79 80 84 99 98 100 99 98 93 86 82 81 79 77 78 78 73 72 71 71 67 70 68 66 62 63 58 56 56 54 52 50 48 45 44
71 73 73 75 77 75 78 83 84 82 81 83 78 75 77 79 75 73 72 75 78 90 93 94 95 94 90 87 83 79 76 74 75 73 70 71 65 67 68 70 67 66 58 52 53 50 48 47 46 42 41 39 38 38
67 68 71 72 68 67 70 74 77 76 74 75 75 73 69 65 61 59 65 68 77 83 85 84 85 86 83 79 77 76 71 72 68 59 60 65 63 68 62 64 62 60 44 47 46 42 39 37 36 34 33 33 34 33
60 63 60 59 60 63 65 70 70 67 65 64 65 62 59 55 53 59 63 67 72 73 73 71 72 72 71 69 69 65 63 60 56 52 53 57 62 58 53 56 55 48 37 39 38 35 33 31 30 29 29 29 29 28
50 49 52 54 57 56 58 60 55 55 57 57 54 54 54 55 52 57 59 62 60 58 58 60 61 60 56 54 54 55 55 53 50 48 51 52 51 50 47 47 47 36 31 32 32 29 28 26 26 27 26 25 25 25
48 50 49 50 50 52 52 48 49 52 51 50 48 47 48 52 53 52 50 49 47 43 43 44 44 43 42 47 50 51 48 43 39 41 41 45 48 42 31 40 34 27 29 28 25 24 25 25 26 24 23 23 23 24
44 42 43 43 45 49 47 39 44 46 45 44 43 43 45 46 47 44 40 39 37 35 39 43 44 43 41 41 44 42 36 33 34 37 38 37 32 22 29 29 21 23 25 22 20 22 24 23 23 22 22 21 21 22
33 32 36 38 40 36 32 32 37 42 42 42 39 35 38 40 42 33 30 32 38 38 35 32 31 32 33 30 29 30 28 27 29 29 27 23 19 20 22 20 18 19 20 20 22 22 21 22 20 19 19 20 21 21
30 32 32 33 31 25 27 35 34 33 33 35 35 31 32 33 30 21 26 37 35 32 29 27 26 26 25 21 20 18 19 22 20 17 15 11 11 17 19 17 17 19 19 20 21 20 19 17 16 17 18 19 20 20
29 27 28 27 24 22 24 29 27 26 25 28 29 27 27 29 30 30 31 38 30 28 27 26 25 22 19 15 14 12 8 10 12 9 8 9 12 17 16 16 17 20 19 18 20 19 16 13 14 16 17 17 18 19
Wind_Direction
247 246 248 252 246 244 250 250 249 253 256 265 272 277 277 283 287 283 289 284 296 282 288 287 304 302 307 306 286 295 296 303 307 306 304 304 306 310 306 301 299 300 297 303 309 312 314 312 305 303 305 306 315 313
246 247 247 248 250 250 248 249 245 253 253 255 259 269 277 275 277 279 285 278 284 289 283 288 294 294 297 299 295 295 298 294 296 299 299 303 302 303 307 302 301 302 299 296 302 304 308 305 298 298 303 310 310 308
246 246 245 247 247 249 247 248 252 257 261 261 263 265 271 275 275 276 276 279 279 279 283 283 281 288 294 291 295 295 293 296 295 296 298 299 296 300 299 299 302 300 299 299 304 299 303 298 294 303 304 303 303 305
244 242 245 243 244 247 247 248 250 256 258 260 259 264 266 268 271 272 275 275 279 281 283 284 289 284 290 285 287 286 286 290 288 292 293 292 293 293 297 296 299 301 299 299 298 292 295 297 299 300 301 302 299 300
243 246 245 243 243 245 248 248 250 253 255 258 261 261 263 265 265 267 270 273 272 275 279 282 283 282 286 286 287 288 280 287 284 283 292 292 290 287 287 289 294 298 296 296 296 297 294 294 297 298 294 296 296 297
241 243 248 245 242 244 247 251 253 253 254 257 258 259 259 260 263 263 265 268 270 271 274 277 277 282 281 278 284 286 288 283 281 287 288 284 283 285 285 287 285 290 291 290 295 300 296 295 291 289 292 293 294 297
242 244 249 247 242 243 245 247 251 255 256 255 257 257 259 260 263 263 264 265 266 267 268 271 275 275 280 278 281 282 284 283 285 281 278 280 281 286 285 279 278 281 283 283 290 292 292 292 292 290 292 294 295 296
245 242 245 247 243 243 244 247 249 252 256 256 256 259 260 261 262 265 268 267 265 264 268 271 274 275 276 277 277 278 278 279 280 284 285 285 286 287 285 280 279 283 286 287 286 284 282 286 287 288 290 290 291 292
244 240 244 248 250 248 245 246 247 250 251 254 256 257 259 261 261 263 265 267 269 269 265 271 271 270 272 274 278 276 277 279 280 282 284 284 286 286 286 283 285 289 287 285 282 280 281 282 281 281 282 285 285 284
249 248 248 250 250 250 249 246 247 248 251 253 255 256 256 261 262 263 266 269 268 268 271 271 272 274 273 275 278 277 278 278 277 280 282 283 286 285 285 282 282 283 283 282 280 280 281 280 280 282 284 283 283 282
252 253 253 250 253 253 250 249 249 249 248 253 255 256 258 260 265 268 265 264 269 271 271 273 275 274 274 275 277 279 280 276 278 280 280 283 283 284 284 285 283 281 281 281 282 281 280 283 284 283 283 286 285 284
251 252 253 253 254 256 254 252 253 254 255 253 253 256 259 261 263 265 270 272 270 269 270 272 273 275 275 277 277 278 279 280 279 280 282 281 281 281 281 281 282 284 284 285 284 283 282 283 284 284 283 285 286 286
250 253 256 256 256 257 257 259 258 259 262 261 256 258 258 262 264 267 268 269 268 269 271 271 272 274 275 276 275 276 277 278 280 281 283 281 282 281 281 282 283 282 281 282 284 283 284 283 283 286 288 288 288 289
249 251 253 256 258 259 259 260 262 263 266 267 266 259 261 265 267 268 268 269 269 271 272 272 271 274 274 274 273 274 276 278 279 278 278 277 277 279 281 281 281 282 283 283 283 283 284 285 286 288 290 289 289 289
251 251 252 253 257 260 261 261 263 265 268 266 264 262 263 266 268 270 269 271 274 275 273 273 273 274 275 273 275 278 282 282 281 278 274 276 278 279 279 281 283 284 285 284 284 283 284 287 289 289 288 289 290 290
248 251 254 256 257 258 259 260 262 265 266 265 264 264 265 268 270 272 276 276 277 278 278 277 275 273 273 273 275 278 279 279 276 276 278 278 278 280 281 281 283 283 282 281 282 283 285 287 288 288 287 286 287 288
251 252 253 254 257 260 262 263 262 262 261 262 267 270 271 272 270 271 277 279 277 274 274 274 273 272 272 274 276 275 275 274 275 276 278 279 280 283 284 284 283 281 281 282 282 284 285 285 286 286 285 285 287 289
253 254 256 256 257 258 259 260 262 264 266 268 270 271 273 276 275 273 272 270 270 269 268 270 271 273 275 276 274 273 272 273 274 277 279 281 281 279 282 284 282 281 281 282 282 282 282 283 285 286 287 289 291 290
253 256 257 258 259 261 261 261 263 265 266 267 268 267 266 266 267 266 267 268 267 266 266 267 270 272 271 271 271 271 272 273 275 277 278 280 280 281 282 281 279 278 280 280 280 280 281 283 285 287 288 289 290 290
254 256 258 259 261 262 265 267 267 268 267 265 265 266 264 263 264 267 268 268 267 268 270 274 276 274 270 269 271 273 275 276 276 277 279 280 282 283 282 279 277 278 279 279 280 281 282 283 283 285 287 288 289 291
253 255 257 259 261 263 264 267 270 270 269 268 266 264 263 263 262 263 266 267 270 273 274 275 274 274 275 275 276 276 276 276 278 280 280 280 280 279 277 276 277 278 278 277 278 280 282 282 284 286 287 288 288 288
254 255 257 259 262 264 266 269 268 267 267 266 266 265 264 265 264 264 262 265 270 275 276 276 276 276 275 277 276 276 279 281 282 284 284 281 277 275 274 275 276 276 278 277 279 280 280 283 285 285 286 287 286 284
253 255 257 259 262 264 266 265 265 265 264 266 267 265 264 265 267 267 267 269 273 274 274 273 273 273 273 273 276 280 281 283 285 283 280 278 279 278 277 279 278 276 276 275 277 279 280 282 284 285 285 284 283 282
253 255 257 259 261 261 260 260 261 263 264 265 264 266 269 270 268 264 265 268 269 268 268 269 270 272 274 278 279 280 281 280 278 277 276 277 277 279 279 278 276 276 275 278 279 281 282 283 282 281 280 278 279 280
253 255 256 257 257 257 259 260 261 264 266 266 266 267 266 263 264 265 266 265 265 264 265 267 271 273 273 274 276 275 276 275 273 272 275 275 277 277 275 275 277 277 280 284 282 282 280 277 275 274 274 275 276 276
256 257 256 256 259 260 262 264 264 264 265 266 266 266 267 268 270 270 269 266 261 262 264 267 268 271 274 275 275 275 274 273 277 283 280 279 279 276 277 277 279 281 288 280 277 275 272 270 270 271 271 273 274 274
255 255 259 260 260 260 261 262 264 265 267 270 270 271 274 274 272 268 263 261 260 263 266 270 273 274 275 277 278 280 281 281 279 276 274 274 273 278 280 280 283 284 279 271 271 268 266 265 267 270 269 269 270 272
254 257 258 259 259 260 261 264 269 272 271 271 275 275 275 274 274 268 264 264 269 272 275 275 276 280 283 282 280 281 280 278 276 272 270 273 276 277 276 277 276 276 267 260 261 260 261 263 262 262 262 265 269 272
256 257 259 262 265 268 269 271 272 272 273 274 274 275 274 271 268 270 274 273 274 278 280 283 284 279 276 274 274 274 276 278 277 274 271 267 269 273 278 265 270 264 258 253 252 256 257 256 255 256 261 265 269 274
256 260 263 264 263 264 267 271 271 271 271 270 269 269 270 271 272 273 275 276 278 277 270 267 269 274 275 274 272 274 277 276 270 265 266 270 274 270 257 263 260 255 253 251 249 251 254 255 256 258 263 268 273 275
263 263 260 259 262 267 268 264 259 263 267 271 274 274 275 275 273 277 281 278 269 271 276 278 275 272 271 274 277 281 283 280 273 268 268 268 265 257 254 257 248 240 238 238 244 246 251 253 254 259 265 270 274 278
253 254 257 261 264 262 261 260 261 265 268 270 273 272 269 273 280 277 260 263 264 262 265 272 277 284 285 289 292 301 301 288 280 267 270 269 262 254 251 247 233 227 228 233 239 242 243 248 256 264 267 272 278 280
252 254 256 259 261 259 257 263 266 266 266 267 268 268 271 271 271 272 265 266 279 286 290 289 284 285 295 307 301 286 266 254 253 252 252 240 235 243 242 226 219 222 222 231 236 235 234 241 255 261 264 268 273 275
Height
10615 10620 10625 10630 10635 10637 10641 10643 10646 10647 10648 10649 10650 10651 10653 10654 10656 10656 10656 10655 10654 10654 10653 10653 10654 10654 10654 10654 10653 10653 10652 10650 10649 10647 10646 10645 10643 10642 10639 10635 10633 10632 10629 10625 10622 10615 10612 10607 10605 10602 10599 10592 10588 10583
10597 10602 10608 10614 10619 10623 10626 10630 10632 10634 10637 10639 10640 10640 10641 10643 10644 10646 10646 10647 10645 10645 10645 10644 10645 10644 10643 10643 10643 10643 10642 10641 10640 10639 10636 10634 10632 10630 10628 10624 10620 10619 10617 10615 10612 10606 10602 10597 10590 10588 10587 10583 10574 10571
10577 10584 10590 10596 10602 10607 10611 10614 10617 10620 10625 10628 10630 10629 10630 10630 10630 10632 10634 10636 10636 10635 10637 10637 10634 10633 10633 10633 10633 10630 10631 10630 10628 10628 10625 10622 10618 10617 10613 10609 10604 10602 10601 10602 10601 10592 10592 10584 10578 10575 10571 10567 10560 10553
10556 10563 10570 10577 10583 10588 10592 10596 10600 10605 10609 10612 10615 10617 10617 10618 10618 10619 10619 10621 10622 10622 10622 10624 10623 10622 10622 10621 10620 10620 10619 10617 10616 10614 10612 10609 10605 10605 10599 10595 10586 10579 10581 10586 10585 10578 10575 10565 10564 10560 10554 10543 10540 10535
10532 10542 10550 10556 10562 10567 10572 10577 10582 10587 10591 10596 10599 10602 10603 10603 10604 10607 10608 10608 10608 10607 10608 10604 10604 10605 10605 10605 10605 10605 10603 10603 10602 10600 10599 10595 10589 10588 10588 10584 10568 10566 10566 10565 10563 10563 10559 10554 10548 10540 10533 10528 10520 10516
10510 10519 10526 10534 10540 10546 10551 10557 10563 10567 10572 10576 10580 10583 10585 10588 10590 10591 10593 10593 10594 10595 10595 10589 10586 10584 10587 10587 10588 10588 10588 10587 10586 10583 10579 10576 10571 10569 10574 10571 10551 10552 10549 10543 10543 10540 10536 10534 10529 10523 10517 10510 10502 10495
10484 10494 10502 10510 10518 10524 10530 10536 10541 10546 10550 10554 10558 10562 10567 10569 10570 10572 10577 10577 10577 10577 10578 10574 10568 10564 10565 10567 10568 10568 10569 10568 10568 10566 10561 10556 10551 10549 10550 10546 10538 10534 10528 10526 10526 10518 10512 10509 10503 10496 10492 10486 10480 10473
10459 10468 10477 10487 10495 10501 10505 10512 10519 10525 10528 10533 10537 10543 10546 10548 10549 10550 10555 10558 10558 10559 10560 10557 10547 10543 10545 10545 10546 10548 10549 10547 10548 10545 10540 10534 10532 10525 10526 10522 10519 10514 10509 10507 10503 10498 10493 10488 10481 10474 10467 10462 10454 10448
10434 10442 10452 10462 10469 10476 10483 10490 10494 10500 10504 10509 10514 10520 10525 10525 10527 10528 10532 10534 10536 10537 10539 10535 10522 10526 10524 10522 10522 10523 10524 10524 10528 10522 10516 10514 10506 10498 10496 10495 10494 10491 10485 10482 10479 10474 10467 10461 10454 10449 10442 10434 10429 10422
10405 10415 10426 10436 10443 10449 10456 10463 10469 10474 10479 10484 10489 10497 10501 10498 10502 10506 10509 10511 10512 10510 10511 10509 10499 10501 10500 10498 10499 10497 10503 10498 10501 10501 10495 10492 10481 10472 10467 10465 10469 10466 10461 10456 10452 10445 10438 10431 10425 10419 10411 10403 10397 10393
10376 10386 10398 10407 10414 10422 10430 10437 10443 10449 10454 10458 10463 10467 10472 10474 10477 10481 10487 10488 10486 10483 10481 10478 10474 10473 10473 10474 10474 10475 10472 10474 10476 10477 10468 10467 10454 10448 10441 10428 10429 10431 10431 10427 10421 10414 10406 10399 10393 10388 10381 10371 10361 10354
10346 10357 10368 10378 10387 10395 10402 10410 10416 10423 10428 10434 10437 10441 10445 10449 10453 10455 10464 10460 10453 10449 10451 10448 10446 10444 10444 10445 10446 10445 10445 10448 10449 10450 10445 10435 10416 10415 10413 10405 10403 10403 10396 10391 10386 10380 10372 10363 10355 10350 10346 10341 10334 10327
10317 10326 10335 10346 10356 10362 10370 10378 10385 10392 10398 10404 10411 10416 10420 10422 10429 10437 10433 10425 10416 10415 10415 10414 10413 10417 10418 10421 10420 10419 10418 10419 10418 10419 10415 10397 10386 10381 10376 10378 10377 10372 10366 10361 10352 10343 10338 10330 10320 10313 10315 10309 10306 10303
10292 10299 10307 10314 10323 10331 10339 10345 10351 10358 10366 10374 10382 10390 10393 10402 10407 10402 10395 10389 10382 10380 10379 10378 10381 10385 10387 10389 10391 10390 10388 10389 10386 10382 10373 10360 10353 10346 10343 10341 10340 10343 10334 10325 10316 10307 10301 10294 10294 10288 10280 10275 10271 10268
10262 10272 10281 10286 10291 10295 10302 10310 10321 10329 10335 10344 10353 10364 10378 10377 10368 10365 10358 10352 10346 10344 10341 10339 10343 10353 10356 10357 10358 10355 10349 10356 10349 10329 10321 10325 10323 10318 10312 10311 10309 10304 10297 10290 10281 10274 10267 10261 10258 10258 10247 10240 10232 10229
10239 10249 10251 10253 10263 10268 10274 10285 10291 10295 10305 10314 10332 10344 10343 10339 10333 10328 10321 10315 10310 10305 10303 10303 10303 10310 10317 10319 10327 10324 10316 10317 10295 10283 10285 10289 10290 10290 10286 10283 10280 10272 10265 10257 10249 10241 10238 10233 10226 10225 10223 10213 10205 10202
10211 10219 10217 10227 10232 10235 10241 10251 10258 10268 10279 10299 10312 10309 10305 10305 10302 10294 10292 10285 10271 10265 10265 10262 10267 10272 10285 10289 10293 10283 10278 10266 10255 10255 10256 10257 10257 10259 10253 10250 10249 10239 10230 10221 10215 10213 10206 10199 10193 10193 10193 10189 10184 10182
10186 10178 10188 10196 10202 10209 10215 10222 10228 10238 10262 10272 10274 10277 10270 10270 10269 10263 10254 10243 10232 10228 10228 10228 10232 10247 10259 10254 10250 10239 10230 10230 10227 10227 10231 10234 10232 10226 10226 10225 10217 10204 10194 10191 10186 10182 10174 10169 10166 10163 10162 10162 10162 10156
10151 10155 10164 10168 10172 10180 10188 10197 10205 10215 10234 10239 10247 10247 10243 10240 10237 10228 10217 10209 10198 10190 10191 10205 10206 10221 10221 10212 10201 10199 10197 10199 10203 10208 10207 10207 10202 10205 10202 10192 10181 10172 10168 10163 10156 10151 10148 10144 10140 10141 10142 10140 10138 10133
10129 10135 10138 10139 10147 10156 10162 10174 10177 10186 10204 10207 10210 10212 10207 10208 10202 10198 10186 10171 10150 10158 10172 10180 10182 10176 10172 10172 10169 10170 10174 10175 10171 10179 10185 10182 10177 10178 10171 10155 10145 10142 10143 10136 10130 10124 10123 10122 10116 10119 10121 10119 10116 10111
10107 10111 10113 10116 10123 10134 10139 10153 10156 10158 10161 10167 10172 10169 10170 10165 10170 10169 10163 10136 10129 10149 10151 10154 10142 10138 10133 10138 10146 10138 10141 10146 10151 10150 10153 10158 10152 10147 10136 10123 10117 10119 10114 10108 10105 10106 10098 10097 10102 10098 10099 10096 10094 10092
10084 10085 10091 10095 10104 10109 10125 10135 10125 10120 10121 10131 10134 10130 10135 10141 10143 10142 10127 10120 10131 10137 10118 10117 10115 10105 10099 10104 10107 10106 10113 10119 10121 10124 10120 10119 10120 10110 10104 10097 10098 10093 10088 10081 10085 10086 10081 10077 10080 10081 10078 10075 10074 10072
10059 10064 10071 10078 10084 10094 10106 10093 10091 10085 10086 10103 10103 10099 10107 10113 10116 10116 10107 10111 10112 10110 10084 10077 10077 10064 10062 10077 10083 10092 10090 10093 10098 10093 10084 10080 10084 10080 10072 10075 10068 10069 10065 10061 10066 10067 10064 10063 10062 10061 10060 10057 10056 10053
10039 10044 10050 10058 10062 10067 10068 10061 10056 10057 10065 10073 10075 10073 10084 10088 10082 10083 10084 10087 10085 10075 10042 10044 10039 10042 10046 10054 10064 10066 10064 10062 10060 10058 10051 10054 10054 10052 10048 10048 10040 10043 10045 10050 10046 10048 10048 10045 10044 10043 10042 10041 10039 10038
10017 10022 10028 10030 10031 10037 10036 10033 10034 10039 10042 10038 10047 10053 10052 10044 10052 10058 10061 10056 10052 10027 10021 10019 10018 10020 10027 10030 10033 10035 10037 10033 10029 10033 10034 10028 10037 10034 10029 10022 10022 10022 10031 10035 10030 10030 10030 10029 10027 10027 10027 10026 10026 10025
9994 9998 9999 10001 10009 10014 10016 10012 10009 10013 10018 10015 10016 10014 10019 10026 10034 10038 10032 10027 10014 10005 10003 10004 10002 9999 10002 10009 10009 10008 10011 10008 10016 10024 10017 10009 10011 10005 10010 10006 10007 10007 10020 10014 10013 10014 10014 10014 10013 10013 10014 10014 10014 10015
9973 9973 9980 9987 9990 9990 9991 9986 9987 9990 9994 9995 9993 9996 10001 10006 10009 10001 9993 9990 9984 9983 9984 9988 9987 9986 9986 9987 9987 9991 9992 9992 9994 9995 9991 9986 9983 9988 9994 9990 9991 9994 10002 9998 9998 9999 9999 10000 10002 10003 10004 10004 10004 10005
9959 9966 9965 9966 9966 9969 9970 9968 9974 9977 9975 9975 9979 9979 9977 9975 9979 9968 9966 9964 9968 9973 9972 9968 9966 9967 9970 9970 9967 9965 9966 9968 9973 9974 9972 9970 9970 9973 9977 9979 9977 9983 9984 9983 9984 9985 9986 9989 9992 9993 9994 9995 9996 9997
9944 9946 9950 9951 9953 9952 9952 9957 9960 9957 9957 9958 9958 9960 9958 9952 9949 9951 9953 9952 9953 9957 9955 9951 9947 9948 9950 9948 9947 9946 9949 9953 9958 9958 9957 9954 9955 9960 9968 9963 9967 9970 9969 9971 9972 9974 9977 9980 9982 9984 9985 9987 9988 9990
9933 9937 9938 9939 9939 9935 9938 9947 9943 9939 9940 9941 9942 9942 9939 9937 9935 9936 9939 9939 9939 9937 9935 9933 9931 9931 9933 9934 9932 9934 9937 9940 9941 9942 9941 9943 9948 9953 9951 9953 9957 9958 9960 9961 9962 9965 9969 9973 9975 9976 9978 9980 9981 9982
9923 9925 9924 9924 9923 9927 9931 9931 9927 9924 9925 9925 9927 9930 9926 9923 9921 9928 9930 9928 9921 9920 9921 9922 9920 9917 9917 9920 9923 9926 9929 9931 9932 9932 9933 9936 9940 9940 9940 9942 9946 9949 9951 9951 9953 9958 9962 9966 9968 9970 9972 9973 9974 9975
9911 9912 9913 9913 9915 9919 9918 9913 9914 9917 9917 9916 9915 9918 9916 9915 9916 9918 9915 9907 9904 9905 9908 9910 9914 9917 9917 9916 9917 9918 9921 9922 9923 9924 9924 9926 9929 9930 9932 9936 9939 9940 9943 9945 9949 9953 9956 9959 9961 9963 9966 9967 9968 9969
9901 9903 9904 9905 9907 9908 9907 9905 9907 9908 9909 9907 9908 9909 9909 9906 9904 9904 9903 9900 9905 9908 9908 9909 9909 9909 9908 9907 9907 9907 9909 9911 9912 9914 9916 9918 9921 9923 9928 9931 9932 9933 9936 9941 9945 9948 9951 9954 9956 9959 9961 9961 9963 9965